Location: Alpine
(32.8351°N, 116.7664°W)
Time: 18:27:54
(UTC+00:00)

Daily predictions for brighter satellites

Satellite Brightness Start Highest point End
(mag) Time Altitude Azimuth Time Altitude Azimuth Time Altitude Azimuth
MOS 1 Rocket 4.0 12:01:59 10° SSE 12:06:07 52° ENE 12:10:18 10° N
Tianhe-1 3.2 12:03:47 10° WNW 12:06:20 22° NNW 12:08:54 10° NE
BREEZE-M DEB (TANK) 4.2 12:08:34 10° NNW 12:11:12 38° NE 12:17:30 10° ESE
CENTAUR R/B 3.5 12:03:03 10° NNW 12:11:36 86° ENE 12:20:34 10° SSE
USA 238 DEB 4.0 12:04:35 10° NNW 12:12:02 89° ENE 12:19:43 10° SSE
USA 238 4.1 12:04:42 10° NNW 12:12:09 88° ENE 12:19:50 10° SSE
DELTA 2 R/B (1) 3.9 12:08:09 10° WNW 12:13:42 71° NNE 12:19:15 10° ESE
CZ-2C R/B 3.2 12:09:36 10° N 12:13:56 33° WNW 12:18:08 10° SW
